Overview Statistics Trail Chart Weather Telemetry Raw packets
 

This is the latest recevied weather packets stored in our database for station/object N0QWM. If no packets are shown the sender has not sent any weather packets the latest 10 day(s).

<< 54 55 56 57 58 59 60 >>
Time Temp. Humidity Pressure Rain* Wind** Luminosity Snow
1788293067 36.67° C 46% 1022.8 hPa 0 mm - 436 W/m² -
1788292766 36.67° C 46% 1022.9 hPa 0 mm - 512 W/m² -
1788292464 36.11° C 47% 1022.9 hPa 0 mm - 557 W/m² -
1788292160 36.67° C 46% 1022.9 hPa 0 mm - 92 W/m² -
1788291854 37.22° C 47% 1022.9 hPa 0 mm - 530 W/m² -
1788291550 36.67° C 44% 1022.8 hPa 0 mm - 521 W/m² -
1788291250 35.56° C 45% 1022.7 hPa 0 mm - 604 W/m² -
1788290950 35.56° C 47% 1023 hPa 0 mm - 350 W/m² -
1788290646 36.11° C 48% 1023.1 hPa 0 mm - 159 W/m² -
1788290342 36.11° C 48% 1023.1 hPa 0 mm - 109 W/m² -
1788290037 35.56° C 47% 1023.2 hPa 0 mm - 298 W/m² -
1788289733 36.11° C 48% 1023.3 hPa 0 mm - 219 W/m² -
1788289433 36.11° C 47% 1023.1 hPa 0 mm - 131 W/m² -
1788289131 36.11° C 50% 1023.4 hPa 0 mm - 631 W/m² -
1788288830 36.67° C 47% 1023.4 hPa 0 mm - 682 W/m² -
1788288525 36.11° C 48% 1023.5 hPa 0 mm - 681 W/m² -
1788288215 36.11° C 48% 1023.4 hPa 0 mm - 660 W/m² -
1788287911 36.11° C 47% 1023.6 hPa 0 mm - 684 W/m² -
1788287610 36.67° C 48% 1023.6 hPa 0 mm - 654 W/m² -
1788287306 36.11° C 47% 1023.5 hPa 0 mm - 643 W/m² -
1788287006 36.67° C 46% 1023.8 hPa 0 mm - 644 W/m² -
1788286701 36.11° C 47% 1023.7 hPa 0 mm - 533 W/m² -
1788286395 35.56° C 49% 1023.8 hPa 0 mm - 626 W/m² -
1788286095 36.11° C 48% 1023.8 hPa 0 mm - 695 W/m² -
1788285794 35.56° C 49% 1023.9 hPa 0 mm - 662 W/m² -

* Rain latest hour (hover to see other rain measurements)
** Current wind speed in m/s (hover to see current wind gust speed)